Location: Brombach
(48.6878°N, 8.1511°E)
Time: 05:57:34
(UTC+00:00)

Daily predictions for brighter satellites

Satellite Brightness Start Highest point End
(mag) Time Altitude Azimuth Time Altitude Azimuth Time Altitude Azimuth
Thor Agena Rocket 4.1 00:01:57 10° N 00:07:01 51° WNW 00:08:23 40° WSW
YAOGAN 11 4.2 00:07:03 61° ESE 00:07:36 68° ENE 00:11:53 10° N
Cosmos 1821 Rocket 4.3 00:02:57 10° NNW 00:09:10 55° W 00:10:54 43° SW
Meteor 1-15 Rocket 4.2 00:04:05 10° N 00:09:47 82° ENE 00:11:30 48° SSE
EO 1 Delta rocket 4.0 00:09:20 60° SSW 00:10:12 76° W 00:15:57 10° NNW
Cosmos 2344 4.3 00:01:17 10° NW 00:10:27 88° SW 00:23:19 10° SE
Cosmos 1300 Rocket 3.4 00:07:06 10° N 00:11:33 84° ENE 00:11:53 75° SE
ADEOS II 4.5 00:10:16 10° ENE 00:12:26 12° E 00:14:33 10° ESE
SL-16 R/B 3.5 00:09:28 15° SE 00:14:18 43° ENE 00:20:10 10° N
Cosmos 1934 Rocket 3.9 00:09:14 10° N 00:15:26 84° W 00:17:20 47° S
Cosmos 1048 Rocket 4.2 00:10:21 10° NNW 00:15:31 52° WSW 00:15:59 50° SW
Cosmos 2298 Rocket 4.0 00:15:04 54° SW 00:16:15 76° WNW 00:21:34 10° NNE
Resurs 1-4 Rocket 3.5 00:11:50 10° NE 00:16:18 28° E 00:18:10 22° SE
Cosmos 1356 Rocket 3.7 00:13:45 10° NNW 00:17:48 54° W 00:17:48 54° W
Gbstr 26 Del rocket 3.9 00:15:40 10° WNW 00:22:09 50° SW 00:22:28 49° SSW
NOSS 2-1 (C) 4.4 00:18:28 10° NW 00:23:09 67° NE 00:29:43 10° SE
USA 281 3.2 00:23:02 29° SSE 00:26:43 86° ENE 00:33:20 10° NNW
CZ-4 R/B 3.9 00:22:23 10° NNE 00:27:18 71° ESE 00:28:15 55° SSE
NOSS 2-1 (D) 4.3 00:25:13 10° NW 00:29:56 74° NE 00:36:36 10° SE
SL-24 R/B 4.2 00:29:49 61° SSW 00:30:27 70° WSW 00:34:50 10° NNW
Cosmos 1461 4.0 00:29:47 32° W 00:31:23 44° NW 00:35:49 10° NNE
COSMOS 2487 3.1 00:28:22 10° NNW 00:31:41 47° ENE 00:31:48 47° ENE
COSMOS 2455 4.1 00:26:05 10° NNW 00:31:45 40° NE 00:37:23 10° ESE
Cosmos 1535 Rocket 4.5 00:27:28 10° NNW 00:33:40 69° W 00:35:45 43° SSW
Cosmos 2221 Rocket 3.5 00:37:15 64° SSW 00:37:56 82° W 00:42:33 10° N
Cosmos 1378 4.4 00:39:12 30° WNW 00:39:12 30° WNW 00:42:25 10° N
Cosmos 1707 4.4 00:42:24 22° ESE 00:43:25 25° E 00:46:35 10° NE
RESURS DK-1 3.7 00:43:08 10° NW 00:45:44 27° W 00:45:44 27° W
Cosmos 44 Rocket 3.3 00:41:46 10° NW 00:47:02 84° SW 00:49:28 32° SSE
Okean 2 4.1 00:46:57 39° SE 00:47:53 47° E 00:51:54 10° NNE
Cosmos 2369 Rocket 3.3 00:45:13 23° W 00:47:59 37° NW 00:53:13 10° NNE
SL-27 R/B 4.5 00:45:35 10° NW 00:46:46 17° WNW 00:46:46 17° WNW
Cosmos 1805 4.1 00:46:30 10° NNW 00:49:47 36° W 00:49:47 36° W
Lacrosse 5 2.9 00:50:13 29° SE 00:50:54 30° SE 00:55:18 10° ENE
Cosmos 1733 3.9 00:48:24 10° NNW 00:51:38 40° WNW 00:51:38 40° WNW
Cosmos 1726 2.9 00:49:21 10° N 00:52:58 47° ENE 00:53:55 37° ESE
Cosmos 1766 3.7 00:52:39 10° NNW 00:56:24 46° W 00:56:24 46° W
BREEZE-M R/B 4.2 00:58:37 35° SSE 00:58:37 35° SSE 01:03:48 10° SE
Cosmos 1943 Rocket 4.1 00:53:25 10° W 00:57:40 21° NW 01:01:55 10° N
Helios 1B rocket 2.9 00:54:57 10° NNE 00:59:01 51° E 01:00:03 40° SSE
Cosmos 1758 4.2 00:57:54 10° N 01:01:54 48° ENE 01:03:48 27° SE
UNK 3.8 01:00:00 34° SSE 01:01:59 75° ENE 01:06:35 10° N
Cosmos 1867 4.1 00:59:35 30° WSW 01:02:07 54° NW 01:07:30 10° NNE
Cosmos 1378 Rocket 3.4 01:01:32 53° S 01:02:32 85° E 01:06:53 10° N
Cosmos 1607 4.5 01:03:30 25° WSW 01:07:13 56° NW 01:13:37 10° NE
Helios 1A 3.9 01:08:14 31° W 01:08:14 31° W 01:11:52 10° NNW
ATLAS CENTAUR R/B 1.6 01:09:09 44° W 01:09:50 52° NW 01:13:36 10° NNE
Cosmos 1315 Rocket 3.9 01:06:51 10° N 01:10:38 41° ENE 01:13:10 19° SE
Cosmos 1400 Rocket 2.8 01:07:09 10° NNW 01:11:15 64° W 01:11:53 55° SW
Cosmos 1153 Rocket 4.5 01:05:17 10° NNW 01:11:40 78° W 01:15:08 29° S
MINOTAUR 4 R/B 4.3 01:11:35 41° SE 01:12:39 66° ENE 01:16:13 10° N
Okean 1 Rocket 3.0 01:09:49 10° NNW 01:14:15 75° W 01:15:30 45° S
Cosmos 1605 Rocket 4.3 01:08:26 10° NNW 01:14:24 49° W 01:16:50 33° SW
AQUA 4.3 01:09:53 10° NNE 01:14:34 53° E 01:16:46 29° SSE
SeaSat 1 4.2 01:11:02 10° N 01:14:56 24° NW 01:18:05 13° W
Meteor 2-20 4.4 01:12:44 34° SSW 01:15:39 82° W 01:21:52 10° N
Cosmos 1470 2.6 01:14:32 10° NNW 01:18:26 75° W 01:19:16 53° SSW
NPP 3.8 01:13:09 10° NNE 01:18:34 72° ESE 01:21:15 30° S
Cosmos 1459 Rocket 4.1 01:13:22 10° N 01:19:42 74° E 01:24:35 17° SSE
BREEZE-M DEB (TANK) 4.3 01:21:10 34° SW 01:23:23 63° SE 01:38:45 10° ENE
NOSS 2-1 (E) 4.4 01:22:16 10° NW 01:27:15 57° SW 01:34:16 10° SSE
Cosmos 1674 Rocket 4.1 01:27:05 36° WSW 01:28:19 46° WNW 01:32:39 10° N
Cosmos 2173 Rocket 3.9 01:23:06 10° N 01:29:17 87° E 01:34:01 18° S
CZ-2D R/B 2.1 01:27:07 10° NNE 01:32:34 76° WNW 01:35:15 31° SSW
Cosmos 2227 Rocket 2.9 01:27:38 10° NNW 01:33:13 56° ENE 01:38:45 10° SE
Landsat 4 3.8 01:30:43 10° NNE 01:34:28 71° ESE 01:35:49 37° S
Cosmos 2297 Rocket 2.4 01:31:14 10° NNW 01:36:56 74° ENE 01:42:35 10° SE
Cosmos 1842 4.1 01:37:36 30° W 01:38:24 33° WNW 01:41:57 10° N
ISS -2.9 01:36:22 20° WNW 01:38:24 50° N 01:41:43 10° ENE
Tianhe-1 3.6 01:45:16 12° SE 01:45:16 12° SE 01:45:37 10° SE
IDEFIX/ARIANE 42P 3.8 01:38:31 10° NNE 01:43:24 37° E 01:48:10 10° SSE
Cosmos 1802 Rocket 3.9 01:38:50 10° N 01:45:02 89° W 01:50:29 14° S
Cosmos 1544 Rocket 4.4 01:42:24 10° N 01:46:41 50° ENE 01:50:57 10° SSE
GP-B 4.3 01:42:29 10° NNE 01:46:41 40° E 01:50:52 10° SSE
ADEOS Rocket 3.6 01:41:57 10° SSE 01:49:17 81° ENE 01:57:06 10° NNW
Cosmos 2100 Rocket 4.0 01:43:30 10° NNW 01:49:42 65° W 01:54:15 19° S
SL-19 R/B 4.3 01:46:51 10° NNE 01:52:37 73° WNW 01:56:00 24° SSW
ADEOS II 2.1 01:47:39 10° NNE 01:52:57 81° ESE 01:56:31 21° S
Resurs 1-4 Rocket 2.6 01:51:18 10° N 01:56:20 47° WNW 01:59:15 24° SW
Cosmos 2251 Rocket 3.4 01:51:15 10° NNW 01:56:31 78° WSW 02:01:43 10° SSE
Meteor 1-29 3.0 01:53:37 10° N 01:56:58 62° WNW 01:58:10 35° SW
Cosmos 1455 Rocket 2.9 01:53:15 10° NNW 01:57:36 81° W 02:00:49 18° S
SL-16 R/B 3.1 01:54:33 23° SSW 01:57:56 40° W 02:03:49 10° NNW
USA 276 3.0 01:57:32 31° S 01:58:02 33° SSE 02:00:56 10° E
In-Cosmos 22 4.2 01:55:18 21° SSW 01:59:08 85° WNW 02:04:44 10° N
DELTA 2 DEB (DPAF) 4.1 01:56:55 19° S 02:00:04 68° WSW 02:04:32 10° NNW
IRS-1D 3.7 01:55:35 10° NNE 02:00:56 80° ESE 02:04:59 18° S
Cosmos 2123 Rocket 4.1 01:55:51 16° S 02:00:57 79° E 02:07:11 10° NNE
Meteor 2-11 Rocket 4.4 01:55:38 10° NNW 02:01:48 72° W 02:07:27 12° S
Cosmos 1674 2.7 02:02:22 23° S 02:04:39 83° E 02:08:30 10° N
Cosmos 1953 2.2 02:01:36 10° NNW 02:05:35 78° W 02:08:36 17° S
USA 281 4.4 02:09:53 18° WSW 02:11:57 21° W 02:16:45 10° NW
KORONAS-FOTON 3.8 02:10:13 22° SSW 02:12:40 81° W 02:16:37 10° N
Cosmos 2219 3.2 02:07:10 10° NNW 02:12:51 71° WSW 02:18:32 10° SSE
IKONOS-2 4.4 02:10:22 11° S 02:14:33 75° WSW 02:18:50 10° NNW
COSMOS 2455 3.0 02:12:04 10° NW 02:17:50 49° WSW 02:23:34 10° S
Cosmos 1707 3.9 02:17:33 20° WSW 02:19:11 28° WNW 02:22:33 10° NNW
Cosmos 1300 3.8 02:18:42 10° N 02:22:23 44° ENE 02:26:03 10° SSE
CZ-3B R/B 3.6 02:05:32 10° WSW 02:24:02 80° NNW 02:28:20 10° ENE
SL-08 R/B 3.7 02:20:28 10° SSE 02:25:08 65° ENE 02:29:46 10° N
Cosmos 1656 3.6 02:21:09 18° SSW 02:25:18 83° WNW 02:30:52 10° NNE
Cosmos 1726 4.1 02:25:43 10° NW 02:27:42 14° W 02:28:21 14° W
Timation 1 Rocket 4.3 02:21:53 10° NNW 02:27:53 85° WSW 02:33:53 10° SSE
IRS-1C 4.4 02:22:51 10° NNE 02:28:11 68° ESE 02:33:30 10° S
Cosmos 1975 Rocket 3.7 02:28:12 18° SW 02:30:59 40° WNW 02:35:06 10° N
Cosmos 304 Rocket 4.0 02:28:04 12° S 02:32:26 67° ESE 02:37:14 10° NNE
Lacrosse 5 2.0 02:29:24 15° WSW 02:33:34 71° NNW 02:38:40 10° NE
Helios 1B rocket 4.3 02:31:00 10° NNW 02:33:54 19° WNW 02:36:21 12° W
Cosmos 1908 3.7 02:31:33 10° NNW 02:35:14 42° W 02:38:26 13° SSW
CZ-4C R/B 3.8 02:31:23 10° S 02:35:36 48° W 02:39:44 10° NNW
Cosmos 2263 Rocket 3.9 02:32:38 10° NNW 02:37:52 37° NE 02:43:05 10° ESE
ARIANE 5 R/B 2.9 02:32:57 10° NNE 02:38:08 66° ESE 02:43:12 10° S
Cosmos 1140 Rocket 3.5 02:33:13 10° NNW 02:38:27 88° ENE 02:43:41 10° SSE
Cosmos 1190 Rocket 4.1 02:38:24 10° NNW 02:43:38 84° ENE 02:48:52 10° SSE
Cosmos 1626 2.2 02:41:35 13° SSW 02:44:46 61° W 02:48:27 10° N
TSX-5 3.9 02:43:05 10° NW 02:46:16 41° WSW 02:49:58 10° S
Cosmos 1315 Rocket 4.4 02:44:08 10° NW 02:46:53 18° W 02:48:49 13° WSW
Cosmos 614 Rocket 4.5 02:43:46 10° NW 02:48:26 37° WSW 02:53:07 10° S
Cosmos 1725 Rocket 4.4 02:42:35 10° NNW 02:48:29 44° W 02:54:18 10° SSW
ATLAS CENTAUR R/B 3.7 02:47:46 10° NW 02:49:37 13° NNW 02:51:30 10° N
APEX 3.6 02:45:45 10° NNW 02:49:55 74° WSW 02:55:11 10° SSE
Iridium 2 3.7 02:49:07 10° SSW 02:52:53 69° W 02:56:43 10° N
Timation 2 Rocket 4.3 02:47:49 10° NW 02:53:17 39° WSW 02:58:46 10° S
Cosmos 371 Rocket 3.8 02:51:15 12° SW 02:55:30 46° WNW 03:00:13 10° NNE
Lacrosse 4 Rocket 2.2 02:51:39 10° SSW 02:55:59 51° ESE 03:00:18 10° NE
Cosmos 332 Rocket 3.9 02:53:27 11° SSW 02:58:12 65° WNW 03:03:05 10° NNE
SL-14 R/B 3.3 02:55:24 10° SSW 02:59:16 66° WNW 03:03:12 10° N
Cosmos 1697 Rocket 2.7 02:55:51 10° SSW 03:01:28 83° WNW 03:07:08 10° NNE
Cosmos 2233 Rocket 4.2 02:58:09 10° NNW 03:04:08 50° W 03:10:03 10° SSW
Cosmos 676 Rocket 4.2 03:00:54 10° NNW 03:06:10 81° ENE 03:11:27 10° SSE
IRS-P3 4.3 03:03:15 10° N 03:08:31 59° WNW 03:13:44 10° SSW
Cosmos 1340 2.7 03:07:12 10° S 03:10:56 81° E 03:14:42 10° NNE
Cosmos 407 Rocket 3.9 03:06:02 10° NNW 03:11:07 46° WSW 03:16:12 10° S
CZ-2C R/B 3.1 03:06:35 10° NNE 03:11:37 61° ESE 03:16:43 10° S
Cosmos 1980 Rocket 2.6 03:06:03 10° SSW 03:11:41 67° ESE 03:17:20 10° NNE
CZ-2D R/B 4.1 03:08:48 10° NNW 03:11:43 15° NW 03:14:37 10° W
Cosmos 2285 Rocket 4.2 03:06:11 10° SSW 03:12:34 83° ESE 03:19:02 10° NNE
Meteor 2-10 Rocket 4.0 03:06:46 10° N 03:12:37 79° ENE 03:18:15 10° SSE
Cosmos 1624 Rocket 4.1 03:09:18 10° SSW 03:14:37 89° ESE 03:20:00 10° NNE
ISS -3.3 03:12:07 10° WNW 03:15:30 66° NNE 03:18:52 10° E
Cosmos 1025 Rocket 4.2 03:11:54 10° SW 03:15:38 28° WNW 03:19:25 10° N
USA 129 1.8 03:14:40 10° S 03:16:33 31° WSW 03:17:51 10° NW
CZ-2D R/B 3.6 03:12:13 10° N 03:16:35 73° WNW 03:20:59 10° SSW
Cosmos 2227 Rocket 3.1 03:12:15 10° NW 03:16:55 27° WSW 03:21:34 10° SSW
CZ-4B R/B 3.7 03:13:47 10° N 03:18:35 54° WNW 03:23:28 10° SW
Tianhe-1 3.3 03:17:56 10° SW 03:18:58 11° SSW 03:19:59 10° S
Cosmos 2369 3.8 03:13:57 10° SSW 03:19:42 80° WNW 03:25:28 10° NNE
Cosmos 2297 Rocket 3.5 03:16:21 10° NW 03:20:22 20° W 03:24:21 10° SW
